Location: Unspecified
(48.8656°N, 0.0000°E)
Time: 15:19:46
(UTC+00:00)

Vanguard 3 - Pass Details

Date: 23 June 2019
Orbit: 507 x 3264 km, 33.4° (Epoch: 15 July)

Event Time Altitude Azimuth Distance (km) Brightness Sun altitude
Rises 13:00:43 0° 248° (WSW) 5,729 11.8 62.1°
Reaches altitude 10° 13:05:49 10° 238° (WSW) 4,202 11.4 61.6°
Maximum altitude 13:13:50 26° 188° (S) 2,302 10.4 60.9°
Drops below altitude 10° 13:19:07 10° 134° (SE) 2,674 10.0 60.4°
Sets 13:21:36 0° 120° (ESE) 3,338 10.3 60.1°
